Probability
0 0 0 0 0 0 0 0 0 0 0 0 0 1 2 2 1 1 1 3 6 6 6 4 1 1 3 5 6 7 6 6 7 8 7 6 5 5 3 1 0 0 0 1
0 0 0 0 0 0 0 0 0 0 0 0 0 0 1 1 1 1 1 3 5 6 6 5 2 2 3 5 7 8 8 8 8 8 8 7 6 6 5 3 1 1 1 2
0 0 0 0 0 0 0 0 0 0 0 0 0 0 0 0 0 0 1 2 5 6 6 6 4 3 4 6 7 8 9 8 7 7 7 7 7 7 6 4 2 2 3 4
0 0 0 0 0 0 0 0 0 0 0 0 0 0 0 0 0 0 0 2 4 6 6 6 6 5 4 5 6 6 7 7 7 6 6 6 7 7 6 5 3 2 3 4
0 0 0 0 0 0 0 0 0 0 0 0 0 0 0 0 1 0 0 1 3 5 6 6 6 5 3 2 3 5 6 6 7 7 7 6 6 6 6 5 3 2 2 3
0 0 0 0 0 0 0 0 0 0 0 0 0 0 0 0 1 1 1 1 3 4 5 6 6 4 2 0 1 4 5 6 6 7 7 6 6 6 6 6 3 1 1 2
0 0 0 0 0 0 0 0 0 0 0 0 0 0 0 0 0 1 2 3 3 3 4 4 4 2 1 0 1 3 4 4 6 7 7 6 6 6 6 6 4 2 1 1
0 0 0 0 0 0 0 0 0 0 0 0 0 0 0 0 0 1 2 2 3 3 3 3 2 0 1 1 2 3 3 4 5 6 5 6 6 6 6 6 4 3 3 2
0 0 0 0 0 0 0 0 0 0 0 0 0 0 0 0 0 0 1 1 1 2 3 2 1 0 1 3 4 4 4 5 5 4 4 5 6 6 6 5 4 3 3 3
0 0 0 0 0 0 0 0 0 0 0 0 0 0 0 0 0 0 0 0 0 1 2 2 2 3 5 6 6 5 4 4 5 4 3 4 5 5 4 4 3 3 3 3
0 0 0 0 0 0 0 0 0 0 0 0 0 0 0 0 0 0 0 0 0 1 2 2 3 6 9 9 7 5 4 3 3 3 2 2 2 3 3 3 3 2 3 3
0 0 0 0 0 0 0 0 0 0 0 0 0 0 0 0 0 0 0 0 0 0 1 2 3 6 10 10 7 5 3 2 1 1 1 1 0 1 1 2 1 1 1 2
0 0 0 0 0 0 0 0 0 0 0 0 0 0 0 0 0 0 0 0 0 0 0 1 1 4 7 7 5 4 3 1 0 0 0 0 0 0 0 0 0 0 0 1
0 0 0 0 0 0 0 0 0 0 0 0 0 0 0 0 0 0 0 0 0 0 0 0 0 1 3 4 3 3 2 1 0 0 0 0 0 0 0 0 0 0 0 0
0 0 0 0 0 0 0 0 0 0 0 0 0 0 0 0 0 0 0 0 0 0 0 0 0 0 1 3 3 2 1 0 0 0 0 0 0 0 0 0 0 0 0 0
0 0 0 0 0 0 0 0 0 0 0 0 0 0 0 0 0 0 0 0 0 0 0 0 0 0 1 2 2 1 0 0 0 0 0 0 0 0 0 0 0 0 0 0
0 0 0 0 0 0 0 0 0 0 0 0 0 0 0 0 0 0 0 0 0 0 0 0 0 0 0 1 1 0 0 0 0 0 0 0 0 0 0 0 0 0 0 0
0 0 0 0 0 0 0 0 0 0 0 0 0 0 0 0 0 0 0 0 0 0 0 0 0 0 0 0 0 0 0 0 0 0 0 0 0 0 0 0 0 0 0 0
0 0 0 0 0 0 0 0 0 0 0 0 0 0 0 0 0 0 0 0 0 0 0 0 0 0 0 0 0 0 0 0 0 0 0 0 0 0 0 0 0 0 0 0
0 0 0 0 0 0 0 0 0 0 0 0 0 0 0 0 0 0 0 0 0 0 0 0 0 0 0 0 0 0 0 0 0 0 0 0 0 0 0 0 0 0 0 0
0 0 0 0 0 0 0 0 0 0 0 0 0 0 0 0 0 0 0 0 0 0 0 0 0 0 0 0 0 0 0 0 0 0 0 0 0 0 0 0 0 0 0 0
0 0 0 0 0 0 0 0 0 0 0 0 0 0 0 0 0 0 0 0 0 0 0 0 0 0 0 0 0 0 0 0 0 0 0 0 0 0 0 0 0 0 0 0
0 0 0 0 0 0 0 0 0 0 0 0 0 0 0 0 0 0 0 0 0 0 0 0 0 0 0 0 0 0 0 0 0 0 0 0 0 0 0 0 0 0 0 0
0 0 0 0 0 0 0 0 0 0 0 0 0 0 0 0 0 0 0 0 0 0 0 0 0 0 0 0 0 0 0 0 0 0 0 0 0 0 0 0 0 0 0 0
0 0 0 0 0 0 0 0 0 0 0 0 0 0 0 0 0 0 0 0 0 0 0 0 0 0 0 0 0 0 0 0 0 0 0 0 0 0 0 0 0 0 0 0
0 0 0 0 0 0 0 0 0 0 0 0 0 0 0 0 0 0 0 0 0 0 0 0 0 0 0 0 0 0 0 0 0 0 0 0 0 0 0 0 0 0 0 0
0 0 0 0 0 0 0 0 0 0 0 0 0 0 0 0 0 0 0 0 0 0 0 0 0 0 0 0 0 0 0 0 0 0 0 0 0 0 0 0 0 0 0 0
Wind_Speed
9 9 7 8 9 9 10 9 9 7 4 3 2 2 3 3 3 3 3 3 3 3 3 3 2 1 1 1 1 1 2 2 2 1 1 1 0 1 1 0 1 1 1 1
11 10 9 11 10 10 10 11 10 8 6 1 0 1 2 2 2 2 3 3 3 3 3 3 3 2 1 1 1 1 2 1 1 1 1 1 0 1 1 0 1 1 1 1
8 8 8 10 9 9 9 8 7 8 4 1 0 0 1 1 1 1 1 2 3 3 3 3 2 2 2 2 1 2 1 1 1 1 1 1 0 0 0 0 0 0 0 0
6 7 9 4 0 2 5 5 4 4 1 1 1 1 1 1 1 1 1 1 2 2 1 2 2 2 2 2 2 2 1 1 1 1 1 1 1 1 1 1 0 1 0 0
5 7 8 4 2 2 3 4 3 3 2 1 2 1 1 2 2 2 2 1 1 1 1 1 2 2 2 2 2 2 2 1 1 1 1 1 1 1 1 1 1 1 1 1
6 7 6 1 2 1 1 4 2 1 1 1 2 2 1 2 2 2 2 2 2 1 1 1 1 1 2 2 2 2 2 1 1 1 1 2 2 1 1 1 1 1 1 1
8 8 5 1 4 3 3 1 3 2 1 1 2 0 2 3 2 2 2 2 1 2 1 1 1 0 1 1 1 1 1 1 1 1 1 2 1 1 1 1 1 2 1 1
7 8 6 4 4 3 1 2 2 1 1 1 2 2 2 2 1 2 2 1 1 1 1 1 1 1 1 1 1 1 1 1 1 1 2 1 1 1 2 1 2 2 2 2
4 4 1 3 2 1 1 0 1 1 2 2 1 1 1 1 1 2 1 1 0 0 0 0 1 1 1 1 0 1 1 1 1 1 1 1 2 2 2 2 2 2 2 2
5 4 3 2 1 2 1 1 1 1 1 1 1 1 1 1 1 2 2 2 1 1 1 1 1 1 1 1 1 1 1 1 1 1 1 1 1 1 1 1 1 1 1 2
8 5 4 3 3 3 2 1 1 1 1 1 2 2 2 2 2 1 1 1 1 1 1 2 1 1 1 1 1 1 1 1 1 0 1 1 1 1 2 2 3 3 2 2
6 4 4 3 2 2 2 2 2 2 2 2 2 2 2 2 1 1 1 1 1 1 1 2 2 1 1 1 1 1 1 1 1 1 1 1 1 1 2 2 3 4 5 4
6 3 3 3 3 3 3 3 2 3 3 3 2 2 2 2 1 1 1 1 2 2 2 2 2 1 1 1 1 2 1 1 1 1 1 1 1 1 2 2 2 3 3 4
4 3 4 3 3 2 3 3 3 3 3 2 2 2 2 2 1 1 2 2 2 2 2 2 2 2 2 1 1 1 1 1 1 1 1 1 1 2 2 2 1 1 1 3
5 4 4 2 2 2 3 3 3 3 2 2 2 2 2 2 2 2 1 1 1 1 2 2 2 2 1 1 1 1 1 1 1 1 1 1 1 1 2 2 1 1 0 0
5 4 4 4 4 4 4 3 3 3 2 3 2 2 1 2 2 1 1 1 2 2 2 2 2 1 1 1 1 1 1 2 2 1 1 1 1 1 1 1 1 1 1 1
6 6 5 5 5 5 4 3 3 2 2 2 2 1 1 1 1 1 1 1 1 2 2 1 1 1 1 1 1 1 1 2 3 2 1 1 1 1 1 2 1 1 1 1
5 4 4 5 5 4 4 3 3 2 2 2 2 2 2 2 2 2 1 1 1 1 1 1 1 1 1 2 1 1 1 1 1 1 1 1 1 1 2 2 2 2 1 1
3 3 3 3 3 3 3 3 2 2 2 2 2 2 2 2 2 1 1 1 2 2 2 1 1 1 1 1 1 1 1 1 1 1 1 2 2 2 1 2 2 2 1 1
2 2 2 2 2 2 2 1 2 2 2 2 2 2 2 2 2 2 2 2 2 1 1 1 1 1 1 1 1 1 1 1 1 1 1 2 2 2 1 1 1 2 2 2
2 2 2 2 2 2 1 1 2 2 2 2 3 3 2 2 2 2 2 2 1 0 1 1 1 1 1 1 2 1 1 1 1 1 1 1 2 1 1 2 2 2 2 2
2 2 2 2 2 1 1 1 2 2 2 3 3 2 2 2 2 2 2 2 1 1 1 1 1 1 1 1 1 1 1 1 1 1 1 1 1 2 2 2 2 2 1 1
2 2 2 2 2 2 2 2 2 2 2 2 3 3 3 2 2 2 2 1 1 1 1 1 1 1 2 1 1 1 1 1 1 1 1 1 2 2 2 2 2 2 2 2
2 2 2 2 2 2 2 2 2 2 2 2 2 2 2 2 1 1 1 1 1 2 1 1 1 2 2 1 1 1 1 1 1 1 1 2 2 2 2 2 2 2 2 3
2 2 2 2 2 2 2 1 1 2 1 1 1 1 1 1 1 0 0 0 1 1 1 1 2 2 1 1 1 1 1 1 1 1 1 1 2 2 2 2 2 2 2 2
1 1 1 1 1 1 1 1 1 1 1 1 1 0 0 0 1 1 0 1 1 1 1 1 1 1 1 1 1 1 1 1 2 1 1 1 1 2 2 2 2 2 2 2
1 1 1 1 1 1 1 1 1 2 1 1 1 1 1 1 1 1 1 1 1 1 1 1 1 1 1 1 1 1 1 1 1 1 1 1 1 1 2 2 2 2 2 2
Wind_Direction
277 289 284 268 265 255 246 251 261 275 270 251 223 159 148 150 158 159 155 158 155 145 142 140 140 141 136 123 118 137 140 140 157 167 140 120 119 151 166 191 220 216 172 178
274 269 267 268 259 253 246 250 258 268 271 274 122 108 141 156 167 173 162 160 162 159 159 154 156 162 146 141 130 118 126 148 147 144 135 127 137 138 134 178 197 205 200 193
273 277 278 264 253 244 241 241 254 263 273 110 113 212 169 133 141 144 143 154 163 165 162 157 165 160 165 161 155 138 125 115 104 127 134 133 97 41 90 231 194 160 245 198
271 271 253 252 300 226 248 256 268 277 262 172 148 70 68 80 98 93 58 103 122 140 153 161 168 158 163 163 160 151 137 130 136 150 152 158 157 174 250 260 241 215 232 253
263 263 264 238 234 226 239 258 263 256 228 147 113 100 95 83 69 73 64 51 68 95 123 136 150 153 161 167 166 154 150 167 185 167 158 174 188 226 243 257 269 250 230 236
254 258 258 238 109 90 248 248 209 220 174 143 161 219 222 90 73 64 64 63 76 77 80 92 119 148 168 169 162 155 158 187 201 173 181 205 203 210 231 230 244 253 256 247
244 255 262 141 128 145 221 263 110 124 150 180 175 156 80 96 92 91 74 59 70 86 81 92 97 140 178 156 169 150 141 174 199 190 218 217 203 217 225 218 232 247 258 263
226 238 244 133 162 203 156 82 88 74 93 115 107 102 104 112 114 116 99 70 65 82 80 95 126 164 178 204 157 123 129 171 220 232 243 237 205 222 225 223 224 232 233 256
223 229 157 165 187 123 84 49 66 72 65 93 123 134 130 148 163 153 147 146 134 227 202 210 179 175 186 247 141 132 151 210 238 248 243 209 204 222 229 221 216 229 225 235
253 231 226 218 221 223 211 301 23 66 93 130 159 212 243 224 214 188 175 169 186 217 232 233 232 240 194 188 192 171 182 225 235 238 303 302 224 211 211 216 222 235 235 240
254 245 247 237 231 230 205 195 228 221 223 212 219 222 233 251 230 199 165 157 191 230 242 246 238 264 245 201 200 213 209 233 250 224 250 270 251 245 231 222 218 223 226 227
251 246 242 235 221 208 208 210 221 223 222 236 236 230 239 244 243 200 170 182 211 237 252 260 245 252 253 225 211 225 224 224 226 246 236 251 269 307 307 270 254 247 240 236
271 266 267 250 240 224 228 232 233 226 222 227 231 234 248 255 232 185 189 210 218 234 252 262 262 264 268 251 244 224 209 198 204 236 241 252 253 259 285 309 296 274 250 240
277 265 257 243 233 222 224 224 225 221 213 217 219 222 230 242 246 213 213 222 229 236 251 255 261 269 280 285 266 247 219 217 222 215 227 240 246 252 254 246 263 293 268 227
265 253 243 234 214 222 226 218 215 213 215 222 219 220 213 217 236 241 228 213 215 242 253 250 258 272 275 277 269 256 237 207 206 219 229 239 250 250 254 257 249 230 125 200
253 236 221 219 221 221 222 221 220 216 220 228 224 217 216 221 234 237 229 212 216 234 254 252 253 270 276 252 251 248 230 245 249 232 231 236 244 246 249 254 251 223 225 217
236 228 222 218 214 213 220 223 224 224 228 237 232 218 218 224 228 227 231 230 236 242 256 272 267 267 268 256 242 233 231 231 246 240 226 228 233 235 237 236 233 225 229 226
242 232 229 222 212 211 219 220 216 221 231 239 229 216 215 217 227 228 233 238 242 249 247 249 257 246 237 250 239 225 227 229 231 229 239 245 254 249 241 241 239 235 236 220
233 224 225 224 217 215 215 218 215 209 209 223 222 223 229 232 244 234 217 228 241 254 257 222 257 264 251 272 291 232 224 231 251 254 247 266 262 250 246 242 236 222 215 204
211 208 197 193 204 200 198 205 215 209 211 222 226 222 228 228 230 224 223 229 229 230 242 210 205 240 239 231 281 231 222 224 233 243 241 239 242 242 243 251 247 228 217 215
193 190 181 183 193 191 196 209 221 215 214 223 232 232 230 231 225 222 227 241 244 232 225 204 209 219 229 242 267 245 225 228 235 241 246 251 251 250 247 250 255 243 229 226
192 185 181 186 192 202 205 217 218 216 222 221 227 234 232 232 228 231 226 220 213 233 224 204 201 221 265 282 239 249 231 224 232 239 250 259 260 263 262 262 262 253 239 228
205 192 185 192 211 219 220 225 219 217 226 229 228 229 228 227 220 225 240 205 155 224 244 204 213 231 256 256 243 249 247 237 234 238 244 255 258 258 259 262 261 255 245 235
214 208 199 196 205 212 226 231 222 223 233 241 236 232 224 220 230 228 206 171 185 213 222 184 207 238 258 257 260 256 261 263 259 250 239 241 251 254 254 254 258 259 253 246
225 222 207 208 219 221 225 227 229 227 229 230 238 248 238 210 207 200 144 175 224 238 218 198 213 237 246 259 270 266 262 261 269 272 259 253 255 259 257 253 253 256 258 253
233 232 217 222 231 217 212 210 221 229 223 220 226 229 225 121 116 118 141 163 196 244 250 196 198 218 228 253 282 296 293 296 295 289 291 291 289 286 279 276 275 268 264 260
244 248 231 225 244 231 224 222 221 220 214 203 205 214 207 169 159 169 188 212 219 220 214 198 186 199 224 241 271 292 298 305 297 299 307 304 301 298 297 295 285 274 266 259